星链-2491 (STARLINK-2491 )

导读 | 豆包AI

STARLINK-2491是美国SpaceX公司星链(Starlink)星座中的一颗低轨通信卫星,于2021年4月7日发射入轨,属于星链V1.5批次卫星。星链项目旨在构建全球低轨卫星互联网,为偏远地区、海洋等网络覆盖薄弱区域提供高速互联网服务。该批次卫星配备激光星间链路,可实现卫星间直接通信,降低对地面基站依赖,提升网络带宽与可靠性,单星重量约295公斤,采用紧凑平板设计适配一箭多星发射。卫星搭载氪工质霍尔推进器,具备轨道调整和末期主动离轨能力,退役后会再入大气层焚毁,减少空间垃圾产生。

基本信息
目录编号:
48148
目录名称:
STARLINK-2491
国际标识:
2021-027BJ
轨道中心:
EARTH
卫星名称:
星链-2491
卫星全名:
星链-2491 (STARLINK-2491 )
卫星状态:
在轨 (已飞行1849 天)
发射日期:
2021-04-07 UTC
国别 :
美国 (US)
星等 :
--
轨道信息
数据来源 国际轨道数据
星历时间: 2026-04-30T04:31:19+0800
16小时前
查看轨道信息
半长轴: 6853.481km
偏心率: 0.0001516
轨道倾角: 53.160°
近地点辐角 108.072°
升交点赤经 287.774°
平近点角 252.045°
近地点: 474.305km
远地点: 476.383km
周期: 94.108分钟
每日圈数: 15.301569
详细信息
固有亮度:
5
最大亮度:
2.5
卫星平台:
Starlink V1.0
覆盖范围:
全球
运营商:
太空探索技术公司
运营商所在国:
美国
制造商(研发单位):
太空探索技术公司
制造商所在国:
美国
使用方式:
暂无
卫星简介
星链(Starlink)计划是由太空探索技术公司(SpaceX)提出的一个巨型低轨卫星互联网星座项目,计划在2019年至2024年间在太空搭建由约1.2万颗卫星组成的“星链”网络,其中1584颗将部署在地球上空550千米处的近地轨道,并从2020年开始工作。该卫星仍在工作。
2D轨道图
3D轨道图
轨道高度分析图
轨道倾角分析图
轨道综合分析图
查看轨道综合分析图